Location: Tierra Monte Subdivision
(35.2092°N, 106.4864°W)
Time: 16:41:44
(UTC+00:00)

deb Chang Zheng 4 - Pass Details

Date: 30 March 2020
Orbit: 605 x 626 km, 98.6° (Epoch: 04 June)

Event Time Altitude Azimuth Distance (km) Brightness Sun altitude
Rises 10:39:06 0° 10° (N) 2,886 7.5 -27.3°
Reaches altitude 10° 10:41:17 10° 9° (N) 1,981 6.5 -26.9°
Enters shadow 10:44:13 42° 358° (N) 879 4.4 -26.4°
